Temp
39 39 38 37 37 36 36 34 34 34 33 33 32 32 32 33 34 34 34 35 35 34 34 34 35 34 34 34 34 34 33 32 32 32 31 31 30 30 29 29 29 29
38 38 38 37 36 36 36 35 35 34 33 33 33 32 33 33 34 34 34 34 34 34 34 34 34 33 33 33 33 32 32 32 31 32 30 30 30 30 29 29 29 29
35 35 36 35 35 35 35 35 34 33 32 32 33 32 32 34 33 34 33 33 33 32 32 32 32 32 32 32 32 32 31 30 30 31 30 29 30 29 29 29 29 28
35 35 35 35 35 34 34 33 33 33 33 32 32 33 33 33 33 33 32 33 31 31 31 31 31 31 30 30 30 30 30 29 30 30 30 30 29 29 28 29 28 27
35 35 35 35 35 34 34 33 32 33 33 33 33 33 33 32 32 32 31 31 31 30 30 30 30 30 30 29 29 29 29 28 29 29 28 27 28 28 27 27 26 25
35 35 35 34 34 34 34 33 33 33 33 33 33 33 32 32 31 31 30 30 30 29 28 28 29 28 29 28 28 27 27 27 27 27 26 25 25 26 26 25 25 24
34 34 34 35 34 34 34 33 33 33 33 33 33 31 32 31 30 30 29 29 28 28 28 28 27 27 27 27 27 26 25 25 25 26 25 24 25 24 25 25 25 24
34 35 35 35 34 34 33 33 32 32 32 32 31 31 31 30 30 29 29 28 28 27 27 26 26 26 26 26 26 25 25 26 25 24 24 24 24 24 24 25 25 24
34 34 34 34 33 33 32 32 31 31 32 31 30 30 30 30 29 28 27 27 27 27 26 26 26 26 26 26 26 25 25 25 25 25 25 24 24 24 24 24 24 23
32 32 32 32 32 32 31 31 31 31 31 30 30 29 29 28 27 27 26 26 25 25 25 25 25 25 25 25 25 24 24 24 24 24 24 24 24 23 23 23 22 22
30 31 30 30 30 30 30 30 30 30 30 29 29 28 28 27 26 26 26 25 25 24 24 24 24 24 24 24 24 24 24 24 24 23 23 23 23 24 25 23 23 22
30 30 30 30 29 29 29 28 28 29 29 28 28 27 26 26 25 25 26 25 24 24 24 24 24 23 23 23 23 23 23 23 23 23 23 22 22 23 22 23 22 22
30 30 30 29 29 28 28 27 27 27 27 26 27 26 25 25 25 25 25 24 24 24 24 23 23 23 23 23 22 22 22 22 22 22 22 22 22 22 22 22 21 22
30 31 30 29 28 28 27 27 27 26 26 26 26 25 25 25 25 24 24 24 24 24 24 24 23 22 22 22 22 22 22 21 22 21 21 21 21 21 21 21 21 21
31 31 30 28 27 27 27 26 26 26 26 25 25 25 25 25 25 24 24 23 23 23 23 23 23 23 23 22 22 22 21 21 21 21 21 21 20 20 20 21 21 21
31 30 29 28 27 26 26 26 26 26 25 25 25 25 25 24 24 24 24 23 23 23 23 23 22 22 26 27 26 23 21 22 22 21 21 21 21 20 20 20 20 21
29 29 28 27 27 26 26 26 25 25 25 24 24 24 24 24 24 23 23 23 23 23 22 22 22 23 28 29 29 28 23 21 21 21 21 20 20 20 20 21 20 21
29 29 28 27 26 26 26 26 25 25 24 24 24 24 24 24 23 23 23 23 23 23 22 22 21 26 29 30 30 29 26 22 21 21 21 20 20 20 20 21 20 21
30 28 28 27 26 26 26 25 25 24 24 24 23 24 23 23 23 23 23 23 22 22 22 22 21 28 30 30 30 29 28 24 21 21 21 20 20 20 20 20 21 21
29 28 27 27 27 26 25 25 24 24 24 24 24 23 23 23 23 23 23 22 22 21 21 21 21 27 30 31 30 30 29 26 22 21 20 20 20 20 20 20 20 20
29 28 27 27 26 26 25 24 24 24 24 24 23 23 22 23 23 23 23 22 21 21 21 20 21 28 31 31 30 30 30 27 22 22 20 19 19 20 20 20 20 20
29 28 28 27 26 25 24 24 24 24 24 24 24 24 25 25 24 24 23 23 23 22 21 20 21 28 30 31 31 30 30 25 22 21 19 18 18 20 20 20 21 21
29 29 28 27 26 25 24 24 24 24 24 25 24 24 24 24 24 24 24 24 23 23 22 22 21 27 31 31 31 31 29 21 21 20 19 17 17 19 19 21 21 21
30 29 28 27 26 25 25 25 25 25 26 26 24 24 24 24 24 24 24 24 23 23 23 22 21 26 30 31 31 31 27 19 19 18 17 17 16 19 20 20 21 22
30 29 29 28 27 26 26 25 25 26 26 26 25 25 24 25 24 24 23 24 24 23 23 23 22 24 29 30 31 30 26 18 18 17 16 16 18 19 21 21 21 23
30 29 30 29 28 28 27 27 27 27 27 26 26 26 25 25 24 23 22 23 23 23 23 23 22 23 26 31 31 30 28 19 18 17 16 18 19 19 19 19 20 21
MSLP
1025.76 1025.88 1026.04 1026.32 1026.68 1027.00 1027.32 1027.64 1027.92 1028.20 1028.56 1028.84 1029.04 1029.20 1029.28 1029.48 1029.64 1029.76 1029.88 1030.04 1030.24 1030.40 1030.52 1030.64 1030.76 1030.76 1030.80 1030.88 1031.04 1031.32 1031.64 1031.96 1032.20 1032.40 1032.60 1032.72 1032.88 1032.96 1033.08 1033.12 1033.08 1033.08
1025.80 1025.96 1026.20 1026.44 1026.76 1027.04 1027.36 1027.56 1027.88 1028.24 1028.60 1028.92 1029.08 1029.20 1029.32 1029.40 1029.64 1029.76 1029.92 1030.12 1030.32 1030.56 1030.72 1030.80 1030.80 1030.84 1030.96 1031.12 1031.36 1031.64 1031.96 1032.16 1032.40 1032.60 1032.76 1032.88 1032.96 1033.00 1033.12 1033.16 1033.20 1033.24
1025.84 1026.08 1026.28 1026.52 1026.80 1027.16 1027.44 1027.72 1028.12 1028.56 1028.88 1029.16 1029.28 1029.32 1029.32 1029.48 1029.68 1029.88 1030.00 1030.20 1030.48 1030.72 1030.76 1030.80 1030.84 1030.96 1031.12 1031.40 1031.68 1031.92 1032.20 1032.40 1032.60 1032.76 1032.84 1033.00 1033.08 1033.12 1033.24 1033.28 1033.36 1033.48
1025.88 1026.08 1026.24 1026.52 1026.80 1027.12 1027.44 1027.76 1028.16 1028.60 1029.00 1029.32 1029.44 1029.44 1029.44 1029.60 1029.80 1030.00 1030.24 1030.52 1030.60 1030.68 1030.80 1030.84 1030.96 1031.20 1031.44 1031.72 1031.92 1032.20 1032.44 1032.60 1032.80 1032.92 1033.00 1033.12 1033.20 1033.20 1033.32 1033.36 1033.52 1033.72
1025.68 1025.96 1026.20 1026.44 1026.80 1027.08 1027.32 1027.60 1027.92 1028.32 1028.84 1029.20 1029.32 1029.40 1029.52 1029.68 1029.92 1030.20 1030.44 1030.60 1030.68 1030.76 1030.84 1031.00 1031.24 1031.48 1031.68 1031.92 1032.08 1032.36 1032.60 1032.84 1033.00 1033.08 1033.16 1033.28 1033.32 1033.32 1033.48 1033.60 1033.84 1034.04
1025.64 1025.84 1026.08 1026.36 1026.60 1026.80 1027.08 1027.24 1027.32 1027.68 1028.36 1029.04 1029.36 1029.44 1029.48 1029.56 1029.80 1030.12 1030.32 1030.52 1030.68 1030.84 1031.04 1031.32 1031.56 1031.80 1032.00 1032.20 1032.40 1032.60 1032.76 1032.96 1033.12 1033.16 1033.24 1033.36 1033.52 1033.60 1033.76 1033.88 1034.00 1034.20
1025.60 1025.88 1026.16 1026.40 1026.64 1026.84 1027.04 1027.20 1027.24 1027.32 1027.64 1028.32 1029.16 1029.68 1029.72 1029.72 1029.80 1029.96 1030.16 1030.36 1030.60 1030.88 1031.24 1031.56 1031.84 1032.12 1032.28 1032.40 1032.56 1032.72 1032.88 1033.00 1033.12 1033.20 1033.36 1033.64 1033.76 1033.92 1033.96 1034.00 1034.12 1034.20
1025.68 1025.96 1026.28 1026.52 1026.72 1026.92 1027.12 1027.32 1027.52 1027.60 1027.60 1028.08 1028.92 1029.52 1029.72 1029.76 1029.80 1029.92 1030.08 1030.28 1030.60 1031.04 1031.48 1031.76 1032.04 1032.24 1032.40 1032.48 1032.56 1032.68 1032.88 1033.04 1033.24 1033.40 1033.64 1033.84 1033.92 1034.04 1034.04 1034.08 1034.08 1034.20
1025.80 1026.04 1026.32 1026.56 1026.84 1027.08 1027.32 1027.48 1027.72 1027.80 1027.76 1028.08 1028.72 1029.20 1029.60 1029.72 1029.80 1029.92 1030.08 1030.36 1030.76 1031.16 1031.52 1031.84 1032.12 1032.32 1032.48 1032.52 1032.60 1032.68 1032.84 1033.12 1033.32 1033.52 1033.68 1033.84 1033.96 1034.00 1034.04 1034.04 1034.08 1034.24
1025.84 1026.16 1026.48 1026.76 1027.04 1027.24 1027.44 1027.60 1027.92 1028.04 1028.08 1028.32 1028.64 1029.04 1029.36 1029.68 1029.80 1029.92 1030.16 1030.52 1030.92 1031.28 1031.56 1031.84 1032.08 1032.32 1032.48 1032.60 1032.72 1032.80 1032.96 1033.20 1033.40 1033.56 1033.72 1033.88 1033.92 1033.96 1034.00 1034.04 1034.12 1034.28
1025.84 1026.04 1026.36 1026.64 1026.92 1027.24 1027.52 1027.80 1028.04 1028.16 1028.28 1028.44 1028.72 1029.04 1029.32 1029.52 1029.84 1030.00 1030.32 1030.68 1030.96 1031.28 1031.56 1031.80 1032.04 1032.24 1032.48 1032.68 1032.84 1032.96 1033.08 1033.24 1033.44 1033.64 1033.80 1033.84 1033.88 1033.88 1033.92 1034.00 1034.12 1034.32
1025.72 1025.96 1026.16 1026.40 1026.76 1027.12 1027.36 1027.64 1027.88 1028.00 1028.24 1028.56 1028.72 1028.96 1029.28 1029.52 1029.72 1030.04 1030.32 1030.64 1030.96 1031.24 1031.52 1031.76 1032.04 1032.24 1032.44 1032.64 1032.80 1032.92 1033.08 1033.28 1033.44 1033.64 1033.80 1033.88 1033.88 1033.88 1033.92 1034.00 1034.16 1034.40
1025.56 1025.80 1026.08 1026.32 1026.64 1026.92 1027.32 1027.64 1027.92 1028.04 1028.24 1028.48 1028.72 1028.88 1029.16 1029.48 1029.80 1030.08 1030.40 1030.64 1031.00 1031.28 1031.52 1031.76 1032.04 1032.24 1032.48 1032.60 1032.72 1032.84 1033.00 1033.24 1033.48 1033.68 1033.80 1033.84 1033.84 1033.84 1033.96 1034.12 1034.28 1034.44
1025.36 1025.68 1026.08 1026.40 1026.64 1026.96 1027.24 1027.52 1027.84 1028.00 1028.20 1028.48 1028.68 1028.88 1029.12 1029.40 1029.68 1030.00 1030.40 1030.68 1031.00 1031.28 1031.56 1031.76 1032.00 1032.24 1032.44 1032.52 1032.60 1032.76 1033.00 1033.24 1033.40 1033.56 1033.60 1033.68 1033.76 1033.92 1034.04 1034.16 1034.28 1034.40
1025.16 1025.56 1026.00 1026.44 1026.72 1026.96 1027.20 1027.44 1027.64 1027.88 1028.16 1028.44 1028.68 1028.92 1029.20 1029.48 1029.76 1030.04 1030.36 1030.72 1031.04 1031.28 1031.52 1031.76 1032.00 1032.12 1032.20 1032.32 1032.52 1032.76 1032.96 1033.12 1033.24 1033.36 1033.44 1033.60 1033.80 1033.96 1034.04 1034.12 1034.20 1034.24
1024.88 1025.32 1025.76 1026.24 1026.60 1026.80 1026.96 1027.20 1027.44 1027.76 1028.08 1028.40 1028.64 1028.92 1029.24 1029.52 1029.76 1030.04 1030.28 1030.56 1030.92 1031.24 1031.48 1031.68 1031.84 1031.92 1031.96 1032.04 1032.28 1032.56 1032.76 1032.92 1033.04 1033.24 1033.40 1033.60 1033.76 1033.88 1033.96 1034.04 1034.12 1034.12
1024.64 1025.08 1025.56 1025.96 1026.28 1026.64 1026.88 1027.08 1027.32 1027.60 1028.00 1028.32 1028.64 1028.92 1029.16 1029.44 1029.68 1029.92 1030.20 1030.48 1030.76 1031.00 1031.24 1031.44 1031.64 1031.72 1031.60 1031.72 1031.88 1032.16 1032.52 1032.76 1032.96 1033.20 1033.40 1033.56 1033.60 1033.68 1033.76 1033.84 1033.96 1034.04
1024.28 1024.76 1025.28 1025.68 1026.04 1026.36 1026.60 1026.88 1027.12 1027.48 1027.80 1028.12 1028.48 1028.80 1029.04 1029.28 1029.52 1029.68 1030.00 1030.32 1030.56 1030.80 1031.00 1031.16 1031.44 1031.44 1031.32 1031.44 1031.60 1031.84 1032.24 1032.64 1032.88 1033.12 1033.24 1033.36 1033.44 1033.48 1033.56 1033.68 1033.84 1034.00
1024.04 1024.48 1024.88 1025.36 1025.68 1025.96 1026.32 1026.64 1026.88 1027.20 1027.52 1027.84 1028.08 1028.36 1028.72 1028.96 1029.12 1029.44 1029.72 1030.04 1030.28 1030.52 1030.76 1031.00 1031.28 1031.16 1031.08 1031.20 1031.36 1031.60 1031.96 1032.44 1032.76 1032.96 1033.04 1033.16 1033.24 1033.32 1033.44 1033.60 1033.76 1033.96
1023.68 1024.20 1024.56 1024.96 1025.36 1025.76 1026.04 1026.24 1026.44 1026.60 1026.88 1027.28 1027.72 1028.12 1028.28 1028.60 1028.88 1029.12 1029.48 1029.76 1030.04 1030.32 1030.60 1030.88 1031.12 1030.96 1030.84 1030.92 1031.12 1031.32 1031.64 1032.16 1032.60 1032.76 1032.84 1032.96 1033.12 1033.24 1033.36 1033.48 1033.68 1033.88
1023.24 1023.68 1024.12 1024.56 1025.00 1025.32 1025.56 1025.72 1025.84 1026.20 1026.60 1026.88 1027.20 1027.44 1027.76 1028.00 1028.28 1028.72 1029.04 1029.44 1029.80 1030.12 1030.44 1030.68 1030.88 1030.76 1030.56 1030.64 1030.84 1031.04 1031.28 1031.80 1032.36 1032.52 1032.72 1032.92 1033.04 1033.16 1033.28 1033.44 1033.64 1033.84
1022.72 1023.16 1023.56 1024.00 1024.40 1024.80 1025.12 1025.28 1025.48 1025.64 1025.96 1026.44 1026.88 1027.24 1027.52 1027.80 1028.08 1028.32 1028.64 1029.00 1029.36 1029.76 1030.12 1030.44 1030.60 1030.40 1030.20 1030.32 1030.52 1030.80 1031.04 1031.52 1032.04 1032.36 1032.64 1032.84 1032.96 1033.08 1033.24 1033.40 1033.56 1033.76
1022.16 1022.64 1023.00 1023.44 1023.84 1024.28 1024.56 1024.76 1025.04 1025.36 1025.68 1026.00 1026.40 1026.56 1026.88 1027.16 1027.36 1027.76 1028.16 1028.64 1029.04 1029.40 1029.64 1029.96 1030.24 1029.96 1029.80 1029.96 1030.24 1030.52 1030.84 1031.48 1031.84 1032.28 1032.52 1032.76 1032.92 1033.00 1033.12 1033.24 1033.40 1033.60
1021.60 1022.00 1022.44 1022.92 1023.32 1023.52 1023.72 1024.08 1024.48 1024.84 1025.04 1025.20 1025.52 1025.92 1026.44 1026.76 1027.16 1027.76 1028.12 1028.36 1028.68 1028.92 1029.08 1029.40 1029.68 1029.60 1029.44 1029.64 1030.00 1030.24 1030.64 1031.28 1031.68 1032.12 1032.44 1032.68 1032.84 1032.88 1032.96 1033.08 1033.24 1033.36
1021.24 1021.60 1021.92 1022.32 1022.60 1022.80 1023.16 1023.56 1023.88 1024.08 1024.52 1025.16 1025.60 1025.96 1026.24 1026.64 1027.24 1027.56 1027.84 1028.12 1028.28 1028.52 1028.84 1029.08 1029.28 1029.36 1029.24 1029.36 1029.64 1029.88 1030.36 1031.08 1031.52 1031.96 1032.36 1032.48 1032.60 1032.68 1032.72 1032.92 1033.00 1033.04
1020.80 1021.12 1021.36 1021.60 1021.88 1022.36 1022.88 1023.16 1023.64 1024.24 1024.52 1024.84 1025.28 1025.60 1026.00 1026.44 1026.84 1027.16 1027.40 1027.60 1027.92 1028.36 1028.52 1028.64 1028.88 1029.12 1029.08 1029.00 1029.20 1029.40 1029.84 1030.72 1031.28 1031.72 1031.96 1032.04 1032.20 1032.28 1032.44 1032.64 1032.76 1032.84
Wind_Speed
8 5 5 6 5 5 7 8 6 7 6 6 7 7 7 7 7 7 7 6 6 5 5 5 5 5 6 6 7 7 6 7 6 5 6 6 5 6 7 7 7 7
7 5 5 5 5 5 5 6 7 7 7 6 6 7 7 8 7 6 6 7 6 6 5 5 5 5 7 6 7 7 6 6 6 3 6 6 5 6 7 7 7 7
8 8 9 9 7 8 7 7 7 6 6 6 7 6 7 7 8 6 6 6 6 6 5 6 7 7 7 7 6 6 6 6 6 5 5 6 5 6 6 6 7 8
8 8 9 9 9 8 7 7 7 6 6 5 5 6 6 6 8 8 7 7 5 6 7 7 7 7 6 6 6 6 6 5 4 4 5 5 5 6 6 6 6 6
9 10 7 7 7 8 8 9 10 9 7 6 6 6 7 8 7 6 5 6 7 7 7 7 7 6 6 6 5 6 5 5 4 4 5 6 5 6 5 6 7 6
6 5 7 8 9 10 10 10 12 11 10 9 7 5 5 7 6 7 6 6 7 7 7 7 7 6 5 5 5 5 5 5 4 5 6 6 5 5 5 5 6 6
8 7 7 8 9 9 7 8 10 10 10 8 7 6 5 7 6 6 7 8 8 7 7 6 6 6 5 5 5 5 5 5 5 6 7 5 5 5 4 5 5 6
8 10 9 9 7 6 6 8 6 5 7 8 8 6 8 8 7 8 7 8 8 8 7 6 5 5 5 5 6 6 5 4 5 6 6 5 5 5 5 4 5 6
9 9 9 10 10 8 6 10 5 7 6 8 8 6 7 7 8 8 8 8 8 7 7 6 6 5 4 5 5 6 6 5 5 5 5 5 5 5 5 4 5 5
9 8 8 8 9 8 7 6 6 6 9 6 7 6 7 7 7 8 8 8 8 7 6 6 6 5 5 5 5 6 6 6 5 5 5 5 5 5 4 4 5 5
10 10 10 10 10 9 10 10 10 9 7 6 7 7 8 8 7 7 8 8 8 8 7 7 6 6 6 5 5 5 5 5 5 5 4 4 4 4 4 4 4 4
10 10 11 11 11 10 11 10 10 9 9 5 8 10 8 7 8 7 7 8 7 7 7 7 6 6 6 6 6 5 5 5 5 5 4 4 4 4 4 4 4 3
11 10 10 11 11 10 9 9 9 9 9 10 8 9 9 9 7 8 6 7 7 7 7 7 6 6 6 6 6 5 5 5 5 5 4 4 3 4 4 3 2 2
10 10 10 9 9 9 9 9 9 9 9 8 8 9 9 8 9 8 7 6 7 7 6 6 6 6 6 6 5 5 5 5 5 5 4 4 4 3 3 2 2 1
10 10 9 9 9 10 10 10 9 9 8 8 7 7 7 7 7 8 8 7 6 6 6 6 7 7 6 6 6 6 5 5 5 5 5 4 3 3 2 2 1 3
12 10 10 10 10 11 11 10 9 9 9 8 8 7 7 7 7 7 7 8 8 7 6 6 6 5 8 13 10 6 6 5 5 5 4 4 4 3 2 2 3 3
8 11 11 12 11 10 9 10 10 9 9 9 8 8 9 8 8 9 8 8 9 8 8 7 6 6 14 14 14 13 7 5 5 5 4 4 4 4 3 3 3 3
9 12 12 12 11 11 11 10 10 10 10 10 9 9 9 8 9 9 9 8 8 8 8 7 6 10 16 15 14 14 11 6 5 5 5 4 4 4 3 3 4 3
9 9 13 12 12 12 11 11 11 11 11 11 12 10 9 10 10 10 10 9 9 9 8 7 6 13 16 16 15 15 14 10 5 5 5 4 4 4 4 4 3 4
9 11 13 13 12 11 11 12 12 13 12 10 10 10 11 10 10 11 9 9 9 9 8 7 7 13 17 17 16 16 15 11 5 5 4 4 4 4 4 4 4 4
9 13 14 13 13 13 13 13 13 12 12 12 11 12 12 12 12 12 11 10 9 8 8 8 7 16 18 17 16 16 16 12 6 5 4 4 4 3 3 3 3 4
14 11 15 13 14 14 13 14 13 14 14 12 11 10 9 8 7 7 9 10 10 10 9 9 8 18 18 18 17 16 17 8 6 6 5 4 4 4 3 4 4 5
15 15 15 15 14 14 15 14 14 14 12 11 10 8 9 10 10 8 7 7 10 9 9 9 9 16 19 18 18 18 14 6 6 5 5 5 5 4 3 5 5 6
15 16 15 15 15 16 16 15 13 11 13 11 10 10 10 8 7 7 7 8 11 10 11 8 8 14 19 18 19 21 12 8 6 6 5 5 5 5 5 5 6 11
14 14 15 15 16 16 15 15 15 14 11 10 11 10 7 8 10 8 7 9 8 9 12 10 7 11 19 20 21 21 12 7 7 6 6 6 6 5 6 5 6 9
13 15 16 16 17 15 13 13 11 10 11 12 11 10 11 11 10 10 8 7 8 9 9 9 8 9 13 22 21 20 18 9 7 8 8 9 8 7 7 6 6 5
Wind_Direction
155 143 133 129 131 131 134 139 136 132 130 135 136 136 131 127 125 119 110 103 102 97 91 85 89 90 86 74 81 80 85 87 87 87 90 90 87 90 87 84 80 82
149 134 131 116 117 112 114 123 128 130 132 132 133 133 129 129 129 122 121 114 105 97 97 97 89 86 92 89 88 91 87 90 94 93 97 93 92 86 85 84 85 84
148 144 144 145 135 132 128 126 119 124 124 127 128 129 130 128 126 121 114 114 115 114 104 97 94 87 89 89 90 92 96 99 98 98 95 93 89 88 86 86 83 80
149 148 147 143 140 129 130 123 119 117 123 133 139 138 131 130 127 123 121 124 117 110 106 99 97 94 95 96 98 94 96 91 96 101 100 94 86 87 84 86 82 78
152 151 147 137 132 134 134 135 135 137 141 140 141 141 136 137 131 125 129 126 118 110 103 100 97 100 100 99 102 106 104 106 104 105 101 93 81 83 82 85 86 84
142 139 144 148 152 148 151 150 149 147 145 152 154 145 133 132 132 135 129 121 117 110 105 101 104 102 104 105 103 104 112 110 110 104 95 89 82 76 87 90 94 89
153 148 149 151 149 155 145 152 153 147 145 135 129 146 148 143 136 131 127 126 118 112 113 115 116 116 115 116 111 108 100 104 101 97 98 97 97 91 91 96 96 95
147 158 153 158 149 143 134 144 143 141 132 131 142 147 154 145 134 133 127 123 118 116 118 119 117 120 125 122 119 114 105 100 101 104 107 110 107 103 99 101 99 96
156 160 161 160 155 147 140 155 134 140 128 129 141 141 146 146 139 132 128 122 120 123 124 125 127 125 125 123 122 120 117 111 114 120 121 120 115 111 106 104 96 90
160 156 156 156 159 157 143 130 136 130 145 129 132 136 138 140 135 132 126 127 129 131 133 135 136 133 129 128 128 128 126 125 123 122 123 123 121 115 106 102 100 87
164 163 161 161 160 159 159 155 159 155 153 136 142 139 138 137 135 132 132 137 141 145 145 146 146 143 136 134 131 131 130 128 127 125 124 121 118 115 107 102 91 93
169 167 166 164 163 164 163 162 160 159 151 136 149 146 144 143 141 145 146 146 145 148 149 149 148 145 144 143 143 138 131 129 128 124 125 122 116 107 103 93 97 102
171 172 168 167 167 164 161 162 164 160 157 158 159 152 149 148 150 146 151 148 150 149 154 154 151 148 149 149 145 140 134 133 130 129 126 121 109 104 95 102 114 125
173 170 170 171 166 163 163 163 161 160 159 154 153 155 155 155 156 154 151 151 154 155 156 153 151 152 152 150 144 142 139 136 140 136 129 111 104 97 106 110 129 155
168 171 169 168 168 166 165 167 166 160 155 156 157 157 156 157 154 151 150 152 155 157 159 158 159 163 160 155 150 147 141 143 141 136 130 125 116 119 122 122 136 145
172 172 172 169 172 174 171 167 163 159 160 161 162 161 159 159 156 156 158 161 162 166 166 166 169 167 170 165 163 156 150 149 135 134 136 144 143 134 128 137 143 139
159 174 172 175 176 172 170 167 164 163 162 163 164 166 166 165 162 165 169 170 172 172 174 174 173 176 179 179 176 168 154 148 149 148 150 152 152 147 145 141 132 125
169 173 176 177 173 176 173 170 165 163 167 169 168 170 171 167 174 176 174 175 176 179 180 180 177 184 185 184 179 174 165 157 154 161 156 161 155 155 154 142 141 128
169 169 178 177 179 175 172 169 170 170 171 174 179 176 168 178 181 177 182 180 180 182 185 182 179 189 191 186 182 175 169 163 162 163 162 158 155 154 156 148 145 142
167 172 181 181 177 175 175 176 177 180 179 177 173 174 181 180 182 186 183 185 186 185 184 183 181 197 193 188 185 181 175 163 167 163 164 161 155 158 155 162 161 158
168 178 181 180 179 180 181 183 182 179 179 182 181 182 183 185 184 187 189 186 186 183 183 185 189 199 195 190 187 186 185 172 158 163 163 165 165 161 164 169 177 168
181 175 184 182 182 183 185 187 186 185 184 180 180 184 188 183 188 181 181 185 183 183 183 190 192 200 197 192 189 189 189 171 158 167 168 169 176 172 180 181 175 164
185 183 187 186 184 185 190 190 188 189 187 180 180 177 175 184 184 180 177 171 183 184 183 187 191 200 197 194 193 193 188 145 161 161 169 175 180 184 178 175 166 162
189 188 188 187 187 192 193 193 192 191 190 184 182 170 180 180 156 166 178 183 188 187 188 181 185 198 198 197 196 197 177 159 159 165 170 180 182 181 173 164 167 170
190 190 191 191 194 196 193 192 193 193 189 181 190 187 181 163 181 186 179 192 191 188 189 190 178 195 201 200 198 198 180 155 160 171 175 186 185 175 175 169 173 187
192 194 196 196 198 196 194 197 189 182 186 186 189 190 188 187 188 194 182 182 182 190 188 190 182 190 205 203 199 198 181 159 162 175 188 191 187 183 175 179 179 186